Latrobe, PA

8:33 PM EDT on August 18, 2019 (GMT -0400)
Arnold Palmer Regional

Weather History for KLBE - May, 2019

Change the Weather History Date:

Friday, May 24, 2019

  Actual Average Record
Temperature  
Mean Temperature 65 °F -  
Max Temperature 75 °F 70 °F 84 °F (2007)
Min Temperature 55 °F 49 °F 35 °F (2006)
Growing Degree Days 15 (Base 50)    
Moisture  
Dew Point 56 °F    
Average Humidity 75    
Maximum Humidity 100    
Minimum Humidity 44    
Precipitation  
Precipitation 0.00 in - - ()
Sea Level Pressure  
Sea Level Pressure 30.09 in    
Wind  
Wind Speed 6 mph (West)    
Max Wind Speed 17 mph    
Max Gust Speed -    
Visibility 12 miles    
Events      
Averages and records for this station are not official NWS values.
T = Trace of Precipitation, MM = Missing Value Source: NWS Daily Summary

Daily Weather History Graph

Daily Weather History Graph

Search for Another Location

Airport or City:

Astronomy

May. 24, 2019 Rise Set
Actual Time 5:54 AM EDT 8:34 PM EDT
Civil Twilight 5:22 AM EDT 9:06 PM EDT
Nautical Twilight 4:43 AM EDT 9:46 PM EDT
Astronomical Twilight 3:58 AM EDT 10:31 PM EDT
Moon 12:58 AM EDT (5/24) 10:53 AM EDT (5/24)
Length of Visible Light 15h 43m
Length of Day
14h 40m
Waning Gibbous, 69% of the Moon is Illuminated
May 24
Waning Gibbous
May 26
Last Quarter
Jun 3
New
Jun 10
First Quarter
Jun 17
Full

Hourly Weather History & Observations

Time (EDT) Temp. Dew Point Humidity Pressure Visibility Wind Dir Wind Speed Gust Speed Precip Events Conditions
12:15 AM 69.8 °F 69.8 °F 100% 30.01 in 10.0 mi SW 5.8 mph - N/A   Scattered Clouds
12:35 AM 69.8 °F 69.8 °F 100% 30.01 in 10.0 mi WSW 5.8 mph - N/A   Scattered Clouds
12:55 AM 69.8 °F 69.8 °F 100% 30.02 in 10.0 mi WSW 6.9 mph - N/A   Scattered Clouds
1:15 AM 68.0 °F 68.0 °F 100% 30.01 in 10.0 mi WSW 6.9 mph - N/A   Partly Cloudy
1:35 AM 68.0 °F 68.0 °F 100% 30.02 in 10.0 mi WNW 10.4 mph - N/A   Scattered Clouds
1:55 AM 66.2 °F 64.4 °F 94% 30.03 in 10.0 mi WNW 11.5 mph - N/A   Partly Cloudy
2:15 AM 66.2 °F 57.2 °F 73% 30.03 in 10.0 mi West 9.2 mph - N/A   Clear
2:35 AM 64.4 °F 55.4 °F 73% 30.04 in 10.0 mi WNW 5.8 mph - N/A   Clear
2:55 AM 62.6 °F 55.4 °F 77% 30.04 in 10.0 mi WNW 6.9 mph - N/A   Clear
3:15 AM 62.6 °F 51.8 °F 68% 30.05 in 10.0 mi WNW 6.9 mph - N/A   Clear
3:35 AM 60.8 °F 51.8 °F 72% 30.06 in 10.0 mi West 5.8 mph - N/A   Clear
3:55 AM 60.8 °F 51.8 °F 72% 30.06 in 10.0 mi West 5.8 mph - N/A   Clear
4:15 AM 59.0 °F 51.8 °F 77% 30.07 in 10.0 mi West 4.6 mph - N/A   Clear
4:35 AM 59.0 °F 53.6 °F 82% 30.07 in 10.0 mi WSW 4.6 mph - N/A   Clear
4:55 AM 57.2 °F 53.6 °F 88% 30.07 in 10.0 mi Calm Calm - N/A   Clear
5:15 AM 55.4 °F 53.6 °F 94% 30.08 in 10.0 mi WSW 3.5 mph - N/A   Clear
5:35 AM 55.4 °F 51.8 °F 88% 30.09 in 10.0 mi Calm Calm - N/A   Clear
5:55 AM 55.4 °F 53.6 °F 94% 30.10 in 10.0 mi Calm Calm - N/A   Clear
6:51 AM 55.4 °F 55.4 °F 100% 30.11 in 20.0 mi South 4.6 mph - N/A   Clear
7:51 AM 62.6 °F 50.0 °F 63% 30.14 in 20.0 mi West 6.9 mph - N/A   Clear
8:51 AM 62.6 °F 50.0 °F 63% 30.14 in 20.0 mi WNW 4.6 mph - N/A   Clear
9:51 AM 64.4 °F 51.8 °F 64% 30.14 in 20.0 mi NNW 5.8 mph - N/A   Clear
10:50 AM 66.2 °F 51.8 °F 60% 30.14 in 10.0 mi WNW 9.2 mph - N/A   Clear
11:50 AM 69.8 °F 53.6 °F 56% 30.14 in 10.0 mi WNW 6.9 mph - N/A   Clear
12:50 PM 71.6 °F 51.8 °F 50% 30.14 in 20.0 mi WNW 9.2 mph - N/A   Partly Cloudy
1:47 PM 73.4 °F 51.8 °F 47% 30.14 in 20.0 mi WNW 11.5 mph - N/A   Clear
2:47 PM 75.2 °F 53.6 °F 47% 30.12 in 20.0 mi West 11.5 mph - N/A   Partly Cloudy
3:50 PM 75.2 °F 51.8 °F 44% 30.11 in 10.0 mi West 17.3 mph - N/A   Scattered Clouds
4:53 PM 75.2 °F 51.8 °F 44% 30.12 in 10.0 mi West 8.1 mph - N/A   Clear
5:53 PM 75.2 °F 51.8 °F 44% 30.13 in 10.0 mi WNW 11.5 mph - N/A   Clear
6:53 PM 73.4 °F 53.6 °F 50% 30.14 in 10.0 mi NNW 6.9 mph - N/A   Mostly Cloudy
7:53 PM 71.6 °F 53.6 °F 53% 30.12 in 10.0 mi Calm Calm - N/A   Mostly Cloudy
8:53 PM 69.8 °F 55.4 °F 60% 30.11 in 10.0 mi Calm Calm - N/A   Scattered Clouds
9:53 PM 66.2 °F 57.2 °F 73% 30.11 in 10.0 mi Calm Calm - N/A   Scattered Clouds
10:15 PM 66.2 °F 55.4 °F 68% 30.11 in 10.0 mi Calm Calm - N/A   Scattered Clouds
10:35 PM 64.4 °F 59.0 °F 83% 30.11 in 10.0 mi Calm Calm - N/A   Clear
10:55 PM 62.6 °F 60.8 °F 94% 30.12 in 10.0 mi Calm Calm - N/A   Partly Cloudy
11:15 PM 62.6 °F 60.8 °F 94% 30.12 in 10.0 mi Calm Calm - N/A   Partly Cloudy
11:35 PM 62.6 °F 60.8 °F 94% 30.13 in 10.0 mi Calm Calm - N/A   Clear
11:55 PM 60.8 °F 60.8 °F 100% 30.13 in 10.0 mi Calm Calm - N/A   Scattered Clouds